Retour au catalogue

SL-12 R/B(2)

ActifGEO
NORAD 19076·ROCKET BODY·🇷🇺 Russia

Lancé Apr 26, 1988 depuis Baikonur Cosmodrome

Loading…

TLE

FraisSource: Space-Track

Époque: Sep 14, 2026, 14:24 UTC

1 19076U 88034D   26257.60049446 -.00000370  00000-0  00000-0 0  9992
2 19076  11.1526 326.9892 0023400 196.5285 174.6813  1.00108410140005

Suivez SL-12 R/B(2) en temps réel avec AllMySat

Download on the App Store